sat.trackr.live / text

‹ back to catalog

ORBCOMM FM20

NORAD 25416 · 1998-046D

PAYLOAD ACTIVE UNKNOWN

§ Identity

Operator
Country
ORB
Launch date
1998-08-02
Launch site
ERAS
Launch vehicle
Mass (kg)
RCS (m²)
0.68

Purposes: comms

External: N2YO · Heavens-Above · Gunter

§ Orbital elements

Epoch: 2026-05-25T00:25:53.831424Z

Period
100.14 min
Inclination
44.9954°
Eccentricity
0.0000338
Mean motion
14.38026814 rev/d
Perigee alt
764.8 km
Apogee alt
765.3 km
Semi-major
7,143.2 km
B*
2.3491e-4
RAAN
1.3561°
Arg perigee
151.6266°
Mean anomaly
208.4600°
Rev number
45,345

§ Raw data

ORBCOMM FM201 25416U 98046D   26145.01798416  .00000575  00000+0  23491-3 0  99972 25416  44.9954   1.3561 0000338 151.6266 208.4600 14.38026814453450

JSON: /api/v1/satellites/25416 · /tle

For live sub-satellite position, see the globe view (requires WebGL).

§ Visibility from observer

Set your observer location to see the next 7 days of passes ≥ 10°. The values pass through the URL so the page stays shareable.

No JS? Fill the form by hand. The geolocation button needs JavaScript.